Tallahassee, FL

12:58 AM EDT on July 28, 2017 (GMT -0400)
Tallahassee Regional

Weather History for KTLH - October, 2012

Change the Weather History Date:

Sunday, October 28, 2012

  Actual Average Record
Temperature  
Mean Temperature 56 °F 66 °F  
Max Temperature 60 °F 78 °F 88 °F (1963)
Min Temperature 52 °F 53 °F 35 °F (1957)
Degree Days  
Heating Degree Days 9    
Month to date heating degree days 13  
Since 1 July heating degree days 13  
Cooling Degree Days 0    
Month to date cooling degree days 215  
Year to date cooling degree days 2943  
Growing Degree Days 6 (Base 50)    
Moisture  
Dew Point 47 °F    
Average Humidity 66    
Maximum Humidity 80    
Minimum Humidity 51    
Precipitation  
Precipitation 0.00 in 0.10 in 2.35 in (1980)
Month to date precipitation 1.46 2.94  
Year to date precipitation 55.70 51.54  
Sea Level Pressure  
Sea Level Pressure 29.82 in    
Wind  
Wind Speed 12 mph (NW)    
Max Wind Speed 21 mph    
Max Gust Speed 28 mph    
Visibility 10 miles    
Events      
T = Trace of Precipitation, MM = Missing Value Source: NWS Daily Summary

Daily Weather History Graph

Daily Weather History Graph

Search for Another Location

Airport or City:

Trip Planner

Search our weather history database for the weather conditions in past years. The results will help you decide how hot, cold, wet, or windy it might be!

Date:

Astronomy

Oct. 28, 2012 Rise Set
Actual Time 7:49 AM EDT 6:52 PM EDT
Civil Twilight 7:24 AM EDT 7:17 PM EDT
Nautical Twilight 6:56 AM EDT 7:45 PM EDT
Astronomical Twilight 6:28 AM EDT 8:13 PM EDT
Moon 6:09 PM EDT 6:43 AM EDT
Length of Visible Light 11h 52m
Length of Day
11h 03m
Waxing Gibbous, 99% of the Moon is Illuminated
Oct 28
Waxing Gibbous
Oct 29
Full
Nov 6
Last Quarter
Nov 13
New
Nov 20
First Quarter

Hourly Weather History & Observations

Time (EDT) Temp. Dew Point Humidity Pressure Visibility Wind Dir Wind Speed Gust Speed Precip Events Conditions
12:53 AM 57.9 °F 51.1 °F 78% 29.81 in 10.0 mi NNW 12.7 mph 19.6 mph N/A   Mostly Cloudy
1:53 AM 59.0 °F 51.1 °F 75% 29.81 in 10.0 mi NNW 13.8 mph - N/A   Overcast
2:53 AM 57.0 °F 50.0 °F 77% 29.80 in 10.0 mi NW 9.2 mph - N/A   Clear
3:53 AM 55.9 °F 48.9 °F 77% 29.79 in 10.0 mi NW 8.1 mph - N/A   Clear
4:53 AM 55.0 °F 48.9 °F 80% 29.79 in 10.0 mi NW 6.9 mph - N/A   Partly Cloudy
5:11 AM 55.4 °F 48.2 °F 77% 29.79 in 10.0 mi NNW 11.5 mph - N/A   Mostly Cloudy
5:53 AM 55.9 °F 48.9 °F 77% 29.79 in 10.0 mi NW 8.1 mph - N/A   Overcast
6:53 AM 55.9 °F 48.9 °F 77% 29.80 in 10.0 mi NW 8.1 mph - N/A   Overcast
7:53 AM 55.9 °F 48.9 °F 77% 29.81 in 10.0 mi NW 9.2 mph - N/A   Overcast
8:53 AM 55.9 °F 48.9 °F 77% 29.84 in 10.0 mi WNW 11.5 mph - N/A   Overcast
9:53 AM 55.9 °F 48.0 °F 75% 29.85 in 10.0 mi WNW 13.8 mph 21.9 mph N/A   Overcast
10:53 AM 55.9 °F 48.0 °F 75% 29.85 in 10.0 mi NW 15.0 mph 20.7 mph N/A   Overcast
11:53 AM 55.9 °F 46.9 °F 72% 29.84 in 10.0 mi WNW 12.7 mph - N/A   Overcast
12:53 PM 55.9 °F 46.9 °F 72% 29.83 in 10.0 mi NW 12.7 mph - N/A   Overcast
1:44 PM 57.2 °F 46.4 °F 67% 29.82 in 10.0 mi NW 13.8 mph - N/A   Overcast
1:53 PM 57.0 °F 46.9 °F 69% 29.81 in 10.0 mi NNW 15.0 mph - N/A   Overcast
2:53 PM 57.9 °F 46.9 °F 67% 29.79 in 10.0 mi NNW 12.7 mph 21.9 mph N/A   Overcast
3:53 PM 59.0 °F 46.9 °F 64% 29.80 in 10.0 mi NW 17.3 mph 25.3 mph N/A   Overcast
4:53 PM 60.1 °F 46.0 °F 60% 29.80 in 10.0 mi NNW 15.0 mph - N/A   Overcast
5:53 PM 60.1 °F 43.0 °F 53% 29.81 in 10.0 mi NNW 19.6 mph 26.5 mph N/A   Mostly Cloudy
6:00 PM 60.8 °F 44.6 °F 55% 29.81 in 10.0 mi NW 19.6 mph - N/A   Mostly Cloudy
6:53 PM 57.9 °F 44.1 °F 60% 29.83 in 10.0 mi NNW 11.5 mph - N/A   Mostly Cloudy
7:53 PM 55.9 °F 45.0 °F 67% 29.85 in 10.0 mi NW 6.9 mph - N/A   Partly Cloudy
8:53 PM 57.0 °F 43.0 °F 59% 29.87 in 10.0 mi NW 12.7 mph 20.7 mph N/A   Partly Cloudy
9:53 PM 54.0 °F 45.0 °F 72% 29.88 in 10.0 mi WNW 8.1 mph - N/A   Partly Cloudy
10:53 PM 53.1 °F 44.1 °F 71% 29.89 in 10.0 mi WNW 8.1 mph - N/A   Clear
11:53 PM 53.1 °F 42.1 °F 66% 29.90 in 10.0 mi WNW 12.7 mph - N/A   Clear